Regional Weather Roundup
Issued by NWS Midland/Odessa, TX

Home | Current Version | Previous Version | Text Only | Print | Product List | Glossary On
Versions: 1 2 3 4 5 6 7 8 9 10 11 12 13 14 15 16 17 18 19 20 21 22 23 24 25 26 27 28 29 30 31 32 33 34 35 36 37 38 39 40 41 42 43 44 45 46 47 48 49 50
000
ASUS44 KMAF 241510
RWRMAF
MIDLAND AREA WEATHER ROUNDUP
NATIONAL WEATHER SERVICE MIDLAND TX
1000 AM CDT MON APR 24 2017

...IN SOUTHWEST TEXAS AND SOUTHEAST NEW MEXICO...

CITY           SKY/WX    TMP DP  RH WIND       PRES   REMARKS
ALPINE         CLOUDY    72  41  32 SW15      30.00S
ANDREWS        FAIR      65  42  42 S12       29.86F
ARTESIA        SUNNY     63  37  39 MISG      29.86S
BIG SPRING     CLOUDY    64  42  44 S21       29.88F
CARLSBAD       CLOUDY    61  36  39 S7        29.85S
DRYDEN           N/A     64  43  46 E3        29.89S
FORT STOCKTON  MOSUNNY   70  45  40 SE5       29.86S
GUAD PASS      CLOUDY    63  39  41 W23       29.98R
HOBBS          SUNNY     59  37  44 S10       29.87F
MARFA            N/A     63  38  39 CALM      30.02S
MIDLAND AIRPK  CLOUDY    68  42  38 S14       29.87S
MIDLAND INTL   CLOUDY    68  41  37 S17G23    29.86F
ODESSA         CLOUDY    68  41  37 S20       29.87S
PECOS          MOSUNNY   63  40  43 CALM      29.85S
PRESIDIO       FAIR      73  40  29 CALM      29.93S
SEMINOLE       CLOUDY    62  42  46 SW14      29.86F
SNYDER         CLOUDY   N/A N/A N/A S16G23    29.85F
WINK           CLOUDY    66  41  40 SE10      29.84S
$$
...OTHER STATIONS IN TEXAS...

CITY           SKY/WX    TMP DP  RH WIND       PRES   REMARKS
ABILENE        SUNNY     65  42  43 S17G28    29.87F
AMARILLO       SUNNY     66  36  32 SW20      29.79R
AUSTIN         MOSUNNY   69  47  45 S10       29.96F
BROWNSVILLE    SUNNY     76  57  51 SE9       29.98R
CORPUS CHRISTI MOSUNNY   69  55  60 CALM      29.96S
DALLAS FTW     MOSUNNY   68  47  46 S10       29.93F
DEL RIO        NOT AVBL
EL PASO        MOSUNNY   75  21  13 SW14      29.92R
HOUSTON INT    MOSUNNY   70  48  45 CALM      30.00R
LUBBOCK        PTSUNNY   64  38  38 SW16      29.82F
SAN ANGELO     SUNNY     69  40  34 S17       29.89S
SAN ANTONIO    PTSUNNY   66  46  48 SE13      29.97F
WACO           SUNNY     65  52  62 VRB6      29.96F
WICHITA FALLS  NOT AVBL
$$
...OTHER LOCATIONS IN NEW MEXICO...

CITY           SKY/WX    TMP DP  RH WIND       PRES   REMARKS
ALAMOGORDO     SUNNY     72  39  30 S10       29.92S
ALBUQUERQUE    MOSUNNY   62  24  23 SW13      29.91F
CANNON AFB     SUNNY     62  35  35 W15       29.83F
CLOVIS         SUNNY     63  36  36 W16       29.83F
HOLLOMAN AFB   SUNNY     73  35  25 S12       29.93S
ROSWELL        SUNNY     63  35  35 S9        29.87F
RUIDOSO        SUNNY     66  16  14 W14G28    30.01S
SANTA FE       SUNNY     61  26  26 SW12      29.92S
TRUTH OR CONSE SUNNY     64  34  32 SE10      29.92S
TUCUMCARI      SUNNY     72  36  26 W14       29.74F
$$



USA.gov is the U.S. government's official web portal to all federal, state and local government web resources and services.